EN

Hourly Weather Abomey-Calavi

Today, 14 May, Friday

Time Temperature Precipitation Wind Pressure Humidity
00:00 +28°C° 0 mm 3 mps 757 mmHg 84%
01:00 +28°C° 0 mm 3 mps 756 mmHg 84%
02:00 +28°C° 0 mm 3 mps 756 mmHg 85%
03:00 +28°C° 0 mm 2 mps 756 mmHg 85%
04:00 +28°C° 0 mm 2 mps 756 mmHg 86%
05:00 +28°C° 0 mm 2 mps 757 mmHg 86%
06:00 +28°C° 0 mm 1 mps 757 mmHg 86%
07:00 +30°C° 0.1 mm 2 mps 757 mmHg 77%
08:00 +31°C° 0.1 mm 2 mps 758 mmHg 68%
09:00 +34°C° 0.1 mm 2 mps 758 mmHg 59%
10:00 +35°C° 0 mm 3 mps 758 mmHg 56%
11:00 +36°C° 0 mm 3 mps 757 mmHg 53%
12:00 +36°C° 0 mm 4 mps 757 mmHg 50%
13:00 +36°C° 0 mm 4 mps 756 mmHg 51%
14:00 +36°C° 0 mm 4 mps 756 mmHg 52%
15:00 +35°C° 0 mm 4 mps 755 mmHg 54%
16:00 +34°C° 0 mm 4 mps 755 mmHg 60%
17:00 +32°C° 0 mm 4 mps 755 mmHg 66%
18:00 +30°C° 0 mm 4 mps 756 mmHg 72%
19:00 +30°C° 0 mm 4 mps 756 mmHg 75%
20:00 +30°C° 0 mm 4 mps 756 mmHg 77%
21:00 +29°C° 0 mm 4 mps 757 mmHg 79%
22:00 +29°C° 0 mm 4 mps 757 mmHg 80%
23:00 +29°C° 0 mm 4 mps 757 mmHg 81%

Tomorrow, 15 May, Saturday

Time Temperature Precipitation Wind Pressure Humidity
00:00 +29°C° 0 mm 4 mps 757 mmHg 82%
01:00 +29°C° 0 mm 3 mps 756 mmHg 83%
02:00 +28°C° 0 mm 3 mps 756 mmHg 85%
03:00 +28°C° 0 mm 3 mps 756 mmHg 86%
04:00 +28°C° 0 mm 2 mps 756 mmHg 86%
05:00 +28°C° 0 mm 2 mps 757 mmHg 86%
06:00 +28°C° 0 mm 2 mps 757 mmHg 86%
07:00 +30°C° 0 mm 3 mps 757 mmHg 76%
08:00 +33°C° 0 mm 3 mps 758 mmHg 67%
09:00 +35°C° 0 mm 4 mps 758 mmHg 58%
10:00 +35°C° 0 mm 4 mps 758 mmHg 56%
11:00 +36°C° 0 mm 4 mps 757 mmHg 53%
12:00 +37°C° 0 mm 4 mps 757 mmHg 51%
13:00 +36°C° 0 mm 4 mps 757 mmHg 51%
14:00 +36°C° 0 mm 4 mps 756 mmHg 52%
15:00 +36°C° 0 mm 4 mps 756 mmHg 53%
16:00 +34°C° 0 mm 4 mps 756 mmHg 59%
17:00 +33°C° 0 mm 4 mps 756 mmHg 66%
18:00 +30°C° 0 mm 4 mps 756 mmHg 72%
19:00 +30°C° 0 mm 4 mps 756 mmHg 75%
20:00 +30°C° 0 mm 3 mps 757 mmHg 79%
21:00 +29°C° 0 mm 3 mps 757 mmHg 82%
22:00 +29°C° 0 mm 3 mps 757 mmHg 83%
23:00 +29°C° 0 mm 3 mps 757 mmHg 84%

Day after tomorrow, 16 May, Sunday

Time Temperature Precipitation Wind Pressure Humidity
00:00 +29°C° 0 mm 3 mps 757 mmHg 86%
01:00 +28°C° 0 mm 3 mps 756 mmHg 87%
02:00 +28°C° 0 mm 3 mps 756 mmHg 88%
03:00 +28°C° 0 mm 3 mps 756 mmHg 89%
04:00 +28°C° 0 mm 3 mps 756 mmHg 89%
05:00 +28°C° 0 mm 2 mps 757 mmHg 90%
06:00 +28°C° 0 mm 2 mps 757 mmHg 90%
07:00 +30°C° 0 mm 3 mps 757 mmHg 80%
08:00 +33°C° 0 mm 3 mps 757 mmHg 69%
09:00 +35°C° 0 mm 4 mps 758 mmHg 59%
10:00 +35°C° 0 mm 4 mps 757 mmHg 56%
11:00 +36°C° 0 mm 5 mps 757 mmHg 54%
12:00 +37°C° 0 mm 5 mps 756 mmHg 51%
13:00 +36°C° 0 mm 5 mps 756 mmHg 52%
14:00 +36°C° 0 mm 5 mps 755 mmHg 54%
15:00 +36°C° 0 mm 5 mps 755 mmHg 55%
16:00 +34°C° 0 mm 5 mps 755 mmHg 62%
17:00 +33°C° 0 mm 5 mps 756 mmHg 68%
18:00 +30°C° 0 mm 5 mps 756 mmHg 75%
19:00 +30°C° 0 mm 5 mps 756 mmHg 77%
20:00 +30°C° 0 mm 4 mps 757 mmHg 80%
21:00 +30°C° 0 mm 4 mps 757 mmHg 82%
22:00 +29°C° 0 mm 4 mps 757 mmHg 83%
23:00 +29°C° 0 mm 4 mps 758 mmHg 84%

17 May, Monday

Time Temperature Precipitation Wind Pressure Humidity
00:00 +29°C° 0 mm 3 mps 758 mmHg 85%
01:00 +29°C° 0.2 mm 3 mps 757 mmHg 86%
02:00 +28°C° 0.2 mm 2 mps 757 mmHg 88%
03:00 +28°C° 0.2 mm 2 mps 757 mmHg 89%
04:00 +28°C° 0.2 mm 3 mps 757 mmHg 89%
05:00 +28°C° 0.2 mm 3 mps 757 mmHg 88%
06:00 +28°C° 0.2 mm 4 mps 757 mmHg 88%
07:00 +30°C° 0 mm 4 mps 757 mmHg 79%
08:00 +32°C° 0 mm 4 mps 758 mmHg 71%
09:00 +34°C° 0 mm 4 mps 758 mmHg 63%
10:00 +34°C° 0 mm 4 mps 758 mmHg 61%
11:00 +35°C° 0 mm 4 mps 758 mmHg 58%
12:00 +35°C° 0 mm 4 mps 757 mmHg 56%
13:00 +35°C° 0.1 mm 4 mps 757 mmHg 56%
14:00 +35°C° 0.1 mm 5 mps 756 mmHg 57%
15:00 +35°C° 0.1 mm 5 mps 756 mmHg 58%
16:00 +34°C° 0 mm 4 mps 756 mmHg 64%
17:00 +32°C° 0 mm 4 mps 757 mmHg 69%
18:00 +30°C° 0 mm 4 mps 757 mmHg 75%
19:00 +30°C° 0 mm 4 mps 757 mmHg 77%
20:00 +30°C° 0 mm 4 mps 758 mmHg 79%
21:00 +29°C° 0 mm 4 mps 758 mmHg 80%
22:00 +29°C° 0 mm 4 mps 758 mmHg 81%
23:00 +29°C° 0 mm 4 mps 758 mmHg 82%

18 May, Tuesday

Time Temperature Precipitation Wind Pressure Humidity
00:00 +29°C° 0 mm 4 mps 758 mmHg 83%
01:00 +29°C° 0 mm 4 mps 757 mmHg 83%
02:00 +29°C° 0 mm 4 mps 757 mmHg 83%
03:00 +29°C° 0 mm 4 mps 757 mmHg 83%
04:00 +29°C° 0 mm 4 mps 757 mmHg 85%
05:00 +28°C° 0 mm 3 mps 758 mmHg 86%
06:00 +28°C° 0 mm 3 mps 758 mmHg 88%
07:00 +30°C° 0 mm 3 mps 758 mmHg 79%
08:00 +32°C° 0 mm 4 mps 759 mmHg 70%
09:00 +34°C° 0 mm 4 mps 759 mmHg 61%
10:00 +35°C° 0 mm 5 mps 759 mmHg 57%
11:00 +36°C° 0 mm 5 mps 758 mmHg 54%
12:00 +37°C° 0 mm 5 mps 758 mmHg 50%
13:00 +36°C° 0 mm 5 mps 757 mmHg 51%
14:00 +36°C° 0 mm 5 mps 757 mmHg 53%
15:00 +36°C° 0 mm 5 mps 756 mmHg 54%
16:00 +34°C° 0 mm 5 mps 757 mmHg 61%
17:00 +33°C° 0 mm 4 mps 757 mmHg 69%
18:00 +30°C° 0 mm 4 mps 757 mmHg 76%
19:00 +30°C° 0 mm 4 mps 757 mmHg 79%
20:00 +30°C° 0 mm 4 mps 758 mmHg 81%
21:00 +29°C° 0 mm 4 mps 758 mmHg 84%
22:00 +29°C° 0 mm 4 mps 758 mmHg 85%
23:00 +29°C° 0 mm 4 mps 758 mmHg 86%

19 May, Wednesday

Time Temperature Precipitation Wind Pressure Humidity
00:00 +29°C° 0 mm 3 mps 758 mmHg 87%
01:00 +29°C° 0 mm 3 mps 758 mmHg 87%
02:00 +28°C° 0 mm 3 mps 758 mmHg 88%
03:00 +28°C° 0 mm 3 mps 757 mmHg 89%
04:00 +28°C° 0 mm 3 mps 758 mmHg 89%
05:00 +28°C° 0 mm 3 mps 758 mmHg 90%
06:00 +28°C° 0 mm 2 mps 758 mmHg 90%
07:00 +30°C° 0 mm 3 mps 758 mmHg 80%
08:00 +33°C° 0 mm 3 mps 759 mmHg 70%
09:00 +35°C° 0 mm 3 mps 759 mmHg 60%
10:00 +35°C° 0 mm 4 mps 759 mmHg 58%
11:00 +36°C° 0 mm 4 mps 759 mmHg 55%
12:00 +36°C° 0 mm 4 mps 758 mmHg 53%
13:00 +36°C° 0 mm 5 mps 758 mmHg 54%
14:00 +36°C° 0 mm 5 mps 757 mmHg 54%
15:00 +36°C° 0 mm 5 mps 757 mmHg 54%
16:00 +34°C° 0 mm 5 mps 757 mmHg 61%
17:00 +33°C° 0 mm 5 mps 758 mmHg 67%
18:00 +30°C° 0 mm 4 mps 758 mmHg 74%
19:00 +30°C° 0 mm 4 mps 758 mmHg 77%
20:00 +30°C° 0 mm 4 mps 758 mmHg 80%
21:00 +29°C° 0 mm 4 mps 759 mmHg 82%
22:00 +29°C° 0 mm 4 mps 759 mmHg 84%
23:00 +29°C° 0 mm 3 mps 759 mmHg 85%
Show more